Regional Weather Roundup
Issued by NWS Albany, NY

Home | Current Version | Previous Version | Text Only | Print | Product List | Glossary On
Versions: 1 2 3 4 5 6 7 8 9 10 11 12 13 14 15 16 17 18 19 20 21 22 23 24 25 26 27 28 29 30 31 32 33 34 35 36 37 38 39 40 41 42 43 44 45 46 47 48
000
ASUS41 KALY 302010
RWRALY

NEW YORK STATE HOURLY WEATHER ROUNDUP
NATIONAL WEATHER SERVICE ALBANY NY
400 PM EDT TUE SEP 30 2014

NOTE: "FAIR" INDICATES FEW OR NO CLOUDS BELOW 12,000 FEET WITH NO
SIGNIFICANT WEATHER AND/OR NO OBSTRUCTIONS TO VISIBILITY.

NYZ032-033-038>043-046>054-057>066-NYZ062>081-302100-
EAST


CITY           SKY/WX    TMP DP  RH WIND       PRES   REMARKS
ALBANY         PTSUNNY   74  56  53 S7        29.93S
GLENS FALLS    PTSUNNY   71  57  61 CALM      29.93F
POUGHKEEPSIE   CLOUDY    72  58  61 SE8       29.93S
MONTGOMERY     CLOUDY    69  59  70 SE9       29.92S
WHITE PLAINS   PTSUNNY   65  58  78 VRB6      29.95F
ISLIP          CLOUDY    65  58  78 NE8       29.93F
NEW YORK CITY  CLOUDY    66  58  75 E9        29.93F
CENTRAL PARK   CLOUDY    67  58  72 SE6       29.96F
$$

NYZ005>009-017-018-044>046-055-056-302100-
CENTRAL


CITY           SKY/WX    TMP DP  RH WIND       PRES   REMARKS
FULTON         MOSUNNY   74  61  63 N8        29.88S
SYRACUSE       MOSUNNY   75  62  64 NE8       29.87S
ROME           PTSUNNY   73  62  68 E8        29.91S
ELMIRA         TSTM      70  60  70 SE13      29.87R
BINGHAMTON     TSTM      65  58  78 E6        29.91S
MONTICELLO     PTSUNNY   70  57  64 E9        29.95S
$$

NYZ026>034-041>043-302100-
NORTH


CITY           SKY/WX    TMP DP  RH WIND       PRES   REMARKS
WATERTOWN      CLOUDY    69  55  60 NE14      29.92R
FORT DRUM      NOT AVBL
MASSENA        MOSUNNY   61  53  75 NE9       29.98S
SARANAC LAKE   CLOUDY    68  53  58 NE9       29.94S
PLATTSBURGH    PTSUNNY   68  57  68 NE6       29.95S
$$

NYZ001>004-010>016-019>021-302100-
WEST


CITY           SKY/WX    TMP DP  RH WIND       PRES   REMARKS
NIAGARA FALLS  PTSUNNY   68  59  73 N10       29.88S
BUFFALO        PTSUNNY   72  55  55 NW6       29.88S
DUNKIRK        CLOUDY    64  58  80 W5        29.91R
JAMESTOWN      CLOUDY    61  54  77 W10       29.93S
WELLSVILLE     PTSUNNY   70  50  49 NW7       29.91F
ROCHESTER      MOSUNNY   67  59  75 N12       29.90R
PENN YAN       SUNNY     76  55  48 E3        29.87F
$$

             KEY
       WCI = WIND CHILL INDEX
       VSB = VISIBILITY
       HX  = HEAT INDEX
$$


USA.gov is the U.S. government's official web portal to all federal, state and local government web resources and services.